Location: Seattle
(47.6064°N, 122.3308°W)
Time: 15:22:26
(UTC-07:00)

S-56A Canister/Altair - Pass Details

Date: 30 July 2021
Orbit: 632 x 2500 km, 38.9° (Epoch: 15 September)

Event Time Altitude Azimuth Distance (km) Brightness Sun altitude
Rises 21:08:02 0° 277° (W) 6,173 13.5 -4.0°
Reaches altitude 10° 21:12:22 10° 272° (W) 5,163 12.8 -4.7°
Maximum altitude 21:25:53 44° 208° (SSW) 2,888 10.4 -6.5°
Drops below altitude 10° 21:36:43 10° 142° (SE) 4,160 10.6 -8.0°
Enters shadow 21:37:19 - 141° (SE) 4,297 10.7 -8.1°
